S59MA-6 Weather Reports


Display with metric or nautical units.
time (UTC)temp
F
wind
direction
speed
MPH
gust
MPH
rain 1hr
in
rain 24hr
in
rain mn
in
humidity
%
barometer
mb
20260507145030 71 338 0.0 0.0 9.99 9.99 0.00 51 999.6
20260507143737 70 338 0.0 0.0 9.99 9.99 0.00 52 999.9
20260507143607 70 338 0.0 0.0 9.99 9.99 0.00 52 999.9
20260507143529 70 338 0.0 0.0 9.99 9.99 0.00 52 999.9
20260507143030 70 338 0.0 0.0 9.99 9.99 0.00 52 999.8
20260507142529 69 338 0.0 0.0 9.99 9.99 0.00 51 999.8
20260507142030 70 338 0.0 0.0 9.99 9.99 0.00 52 999.7
20260507141529 70 338 0.0 0.0 9.99 9.99 0.00 53 999.6
20260507140531 70 338 0.0 0.0 9.99 9.99 0.00 58 999.7
20260507140029 69 248 0.0 0.0 9.99 9.99 0.00 59 999.7
20260507135032 68 248 0.0 0.0 9.99 9.99 0.00 59 999.9
20260507134529 68 359 0.0 0.0 9.99 9.99 0.00 60 999.9
20260507133529 69 248 0.0 0.0 9.99 9.99 0.00 60 1000.0
20260507132627 69 248 0.0 0.0 9.99 9.99 0.00 60 1000.1
20260507132529 69 248 0.0 0.0 9.99 9.99 0.00 60 1000.1
20260507132257 69 359 0.0 0.0 9.99 9.99 0.00 60 1000.1
20260507132105 69 359 0.0 0.0 9.99 9.99 0.00 60 1000.1
20260507132029 69 359 0.0 0.0 9.99 9.99 0.00 60 1000.1
20260507130531 70 248 0.0 0.0 9.99 9.99 0.00 60 998.7
20260507125747 69 248 0.0 0.0 9.99 9.99 0.00 62 1000.1
20260507125531 69 248 0.0 0.0 9.99 9.99 0.00 62 1000.1
20260507125030 69 248 0.0 0.0 9.99 9.99 0.00 63 1000.3
20260507124533 69 248 0.0 0.0 9.99 9.99 0.00 63 1000.1
20260507122256 69 248 0.0 0.0 0.00 9.99 0.00 62 1000.4
20260507122031 69 248 0.0 0.0 0.00 9.99 0.00 62 1000.4
20260507121531 69 248 0.0 0.0 0.00 9.99 0.00 62 1000.5
20260507114531 70 248 0.0 0.0 9.99 9.99 0.00 63 1000.9
20260507114032 69 248 0.0 0.0 9.99 9.99 0.00 63 1000.9
20260507113531 69 248 0.0 0.0 9.99 9.99 0.00 62 1000.9
20260507112530 70 248 0.0 0.0 9.99 9.99 0.00 66 1000.9
20260507112031 69 248 0.0 0.0 9.99 9.99 0.00 66 1001.3
20260507110530 67 359 0.0 0.0 9.99 9.99 0.00 67 998.3
20260507110031 67 248 0.0 0.0 9.99 9.99 0.00 63 1000.6
20260507105030 69 248 0.0 0.0 9.99 9.99 0.00 63 1000.3
20260507104536 69 248 0.0 0.0 5.20 9.99 0.00 61 1001.3
20260507103530 71 248 0.0 0.0 0.00 9.99 0.00 60 1001.4
20260507102803 71 248 0.0 0.0 5.20 9.99 0.00 63 1001.3
20260507102530 71 248 0.0 0.0 5.20 9.99 0.00 63 1001.3
20260507102031 71 248 0.0 0.0 9.99 9.99 0.00 64 1001.4
20260507101534 70 248 0.0 0.0 9.99 9.99 0.00 66 1001.3
20260507101036 70 248 0.0 0.0 9.99 9.99 0.00 67 1001.3
20260507095531 67 248 0.0 0.0 9.99 9.99 0.00 69 1001.5
20260507095031 66 248 0.0 0.0 9.99 9.99 0.00 71 1001.5
20260507094533 66 248 0.0 0.0 9.99 9.99 0.00 71 1001.5
20260507093530 66 248 0.0 0.0 9.99 9.99 0.00 71 1001.7
20260507093034 66 359 0.0 0.0 9.99 9.99 0.00 71 1001.8
20260507092530 66 359 0.0 0.0 5.20 9.99 0.00 73 1000.5
20260507092033 66 248 0.0 0.0 0.00 9.99 0.00 72 1000.0
20260507091530 66 248 0.0 0.0 0.00 9.99 0.00 73 1001.6
20260507090532 67 248 0.0 0.0 0.00 9.99 0.00 74 1001.6
20260507090030 67 248 0.0 0.0 0.00 9.99 0.00 74 1001.7
20260507085032 67 248 0.0 0.0 0.00 9.99 0.00 76 1001.8
20260507084530 67 248 0.0 0.0 0.00 9.99 0.00 78 1001.7
20260507083530 66 248 0.0 0.0 0.00 9.99 0.00 79 1001.8
20260507083032 66 248 0.0 0.0 0.00 9.99 0.00 78 1001.8
20260507082030 66 248 0.0 0.0 0.00 9.99 0.00 81 1001.9
20260507081532 66 248 0.0 0.0 0.00 9.99 0.00 83 1001.8
20260507080532 65 248 0.0 0.0 0.00 9.99 0.00 84 1001.8
20260507080031 65 248 0.0 0.0 0.00 9.99 0.00 85 1001.8
20260507075033 64 248 0.0 0.0 0.00 9.99 0.00 86 1002.0
20260507074532 63 248 0.0 0.0 0.00 9.99 0.00 86 1001.8
20260507073032 60 248 0.0 0.0 0.02 9.99 0.00 88 1001.9
20260507072534 59 248 0.0 0.0 0.02 9.99 0.00 88 1001.7
20260507072032 59 248 0.0 0.0 0.02 9.99 0.00 88 1001.9
20260507071533 58 248 0.0 0.0 0.02 9.99 0.00 88 1001.9
20260507071036 58 248 0.0 0.0 0.02 9.99 0.00 88 1001.8
20260507070532 58 248 0.0 0.0 0.02 9.99 0.00 88 1001.9
20260507070031 58 248 0.0 0.0 0.02 9.99 0.00 88 1001.7
20260507065035 58 248 0.0 0.0 0.02 9.99 0.00 89 1001.7
20260507063033 56 359 0.0 0.0 0.00 9.99 0.00 89 1001.9
20260507062532 56 359 0.0 0.0 0.00 9.99 0.00 89 1001.7
20260507062032 55 248 0.0 0.0 0.00 9.99 0.00 89 1001.6
20260507061531 54 248 0.0 0.0 0.00 9.99 0.00 89 1001.7
20260507061034 54 248 0.0 0.0 0.00 9.99 0.00 89 1001.6
20260507060531 53 248 0.0 0.0 0.00 9.99 0.00 89 1001.4
20260507055032 53 248 0.0 0.0 0.00 9.99 0.00 89 1001.4
20260507054531 53 248 0.0 0.0 0.00 9.99 0.00 89 1001.5
20260507053739 52 248 0.0 0.0 0.00 9.99 0.00 89 1001.4
20260507053532 52 248 0.0 0.0 0.00 9.99 0.00 89 1001.4
20260507053034 52 248 0.0 0.0 0.00 9.99 0.00 89 1001.2
20260507052532 52 248 0.0 0.0 0.00 9.99 0.00 89 1001.3
20260507052035 52 248 0.0 0.0 0.00 9.99 0.00 89 1001.4
20260507051037 52 248 0.0 0.0 0.00 9.99 0.00 88 1001.1
20260507050032 51 248 0.0 0.0 0.00 9.99 0.00 88 1000.9
20260507045532 51 248 0.0 0.0 0.00 9.99 0.00 88 1000.9
20260507045256 51 248 0.0 0.0 0.00 9.99 0.00 88 1000.9
20260507045032 51 248 0.0 0.0 0.00 9.99 0.00 88 1000.9
20260507044033 51 248 0.0 0.0 0.00 9.99 0.00 88 1000.7
20260507043532 51 248 0.0 0.0 0.00 9.99 0.00 88 1000.7
20260507043032 51 248 0.0 0.0 0.00 9.99 0.00 88 1000.7
20260507042532 51 248 0.0 0.0 0.00 9.99 0.00 88 1000.9
20260507042032 51 248 0.0 0.0 0.00 9.99 0.00 88 1000.7
20260507041750 51 248 0.0 0.0 0.00 9.99 0.00 88 1000.5
20260507041533 51 248 0.0 0.0 0.00 9.99 0.00 88 1000.5
20260507040532 51 248 0.0 0.0 0.00 9.99 0.00 88 1000.4
20260507040032 51 248 0.0 0.0 0.00 9.99 0.00 88 1000.5
20260507035034 51 248 0.0 0.0 0.00 9.99 0.00 88 1000.2
20260507034532 51 248 0.0 0.0 0.00 9.99 0.00 88 1000.2
20260507033034 51 248 0.0 0.0 0.00 9.99 0.00 88 1000.4
20260507032534 51 248 0.0 0.0 0.00 9.99 0.00 88 1000.4
20260507032033 51 248 0.0 0.0 0.00 9.99 0.00 88 1000.3
20260507031531 51 248 0.0 0.0 0.00 9.99 0.00 88 1000.5
20260507031035 51 248 0.0 0.0 0.00 9.99 0.00 88 1000.4
20260507030533 51 248 0.0 0.0 0.00 9.99 0.00 88 1000.3
20260507025532 51 248 0.0 0.0 0.00 9.99 0.00 88 1000.0
20260507025032 51 248 0.0 0.0 0.00 9.99 0.00 87 1000.2
20260507024532 51 248 0.0 0.0 0.00 9.99 0.00 87 1000.2
20260507023532 52 248 0.0 0.0 0.00 9.99 0.00 87 1000.2
20260507023032 52 248 0.0 0.0 0.00 9.99 0.00 87 1000.2
20260507022535 52 248 0.0 0.0 0.00 9.99 0.00 87 1000.3
20260507022249 52 248 0.0 0.0 0.00 9.99 0.00 87 1000.1
20260507022034 52 248 0.0 0.0 0.00 9.99 0.00 87 1000.1
20260507021535 52 248 0.0 0.0 0.00 9.99 0.00 87 1000.3
20260507021034 52 248 0.0 0.0 0.00 9.99 0.00 87 1000.3
20260507020533 52 248 0.0 0.0 0.00 9.99 0.00 87 1000.2
20260507020035 52 248 0.0 0.0 0.00 9.99 0.00 87 1000.0
20260507015532 52 248 0.0 0.0 0.00 9.99 0.00 87 1000.1
20260507015033 52 248 0.0 0.0 0.00 9.99 0.00 87 1000.2
20260507013532 53 248 0.0 0.0 0.00 9.99 0.00 86 1000.1
20260507013033 53 248 0.0 0.0 0.00 9.99 0.00 86 1000.1
20260507012532 53 248 0.0 0.0 0.00 9.99 0.00 87 1000.1
20260507011753 54 248 0.0 0.0 0.00 9.99 0.00 87 1000.0
20260507011534 54 248 0.0 0.0 0.00 9.99 0.00 87 1000.0
20260507011035 54 359 0.0 0.0 0.00 9.99 0.00 87 1000.0
20260507010532 54 359 0.0 0.0 0.00 9.99 0.00 87 1000.1
20260507010033 54 248 0.0 0.0 0.00 9.99 0.00 87 1000.1
20260507005532 54 248 0.0 0.0 0.00 9.99 0.00 87 1000.1
20260507005033 54 248 0.0 0.0 0.00 9.99 0.00 87 1000.1
20260507004532 54 248 0.0 0.0 0.00 9.99 0.00 87 1000.0
20260507004035 54 248 0.0 0.0 0.00 9.99 0.00 87 1000.2
20260507003731 54 248 0.0 0.0 0.00 9.99 0.00 87 1000.2
20260507003534 54 248 0.0 0.0 0.00 9.99 0.00 87 1000.2
20260507003032 54 248 0.0 0.0 0.00 9.99 0.00 87 1000.2
20260507002755 54 248 0.0 0.0 0.00 9.99 0.00 87 1000.2
20260507002533 54 248 0.0 0.0 0.00 9.99 0.00 87 1000.2
20260507002032 54 248 0.0 0.0 0.00 9.99 0.00 87 1000.2
20260507001036 55 248 0.0 0.0 0.00 9.99 0.00 87 1000.4
20260507000033 55 248 0.0 0.0 0.00 9.99 0.00 87 1000.3
20260506235032 55 248 0.0 0.0 0.00 9.99 0.00 87 1000.2
20260506234535 55 248 0.0 0.0 0.00 9.99 0.00 87 1000.3
20260506233534 55 248 0.0 0.0 0.00 9.99 0.00 87 1000.3
20260506233034 55 248 0.0 0.0 0.00 9.99 0.00 87 1000.1
20260506232532 55 248 0.0 0.0 0.00 9.99 0.00 87 1000.4
20260506232223 55 248 0.0 0.0 0.00 9.99 0.00 87 1000.4
20260506232032 55 248 0.0 0.0 0.00 9.99 0.00 87 1000.4
20260506231533 55 248 0.0 0.0 0.00 9.99 0.00 87 1000.4
20260506231034 55 248 0.0 0.0 0.00 9.99 0.00 87 1000.4
20260506230658 55 248 0.0 0.0 0.00 9.99 0.00 87 1000.4
20260506230536 55 248 0.0 0.0 0.00 9.99 0.00 87 1000.4
20260506225532 55 248 0.0 0.0 0.00 9.99 0.00 88 1000.3
20260506225035 55 248 0.0 0.0 0.00 9.99 0.00 88 1000.5
20260506224532 55 248 0.0 0.0 0.00 9.99 0.00 87 1000.6
20260506224032 55 248 0.0 0.0 0.00 9.99 0.00 88 1000.5
20260506223632 55 248 0.0 0.0 0.00 9.99 0.00 87 1000.4
20260506223532 55 248 0.0 0.0 0.00 9.99 0.00 87 1000.4
20260506223035 55 248 0.0 0.0 0.00 9.99 0.00 87 1000.4
20260506222532 55 248 0.0 0.0 0.00 9.99 0.00 87 1000.5
20260506222112 55 248 0.0 0.0 0.00 9.99 0.00 87 1000.3
20260506222034 55 248 0.0 0.0 0.00 9.99 0.00 87 1000.3
20260506221535 55 248 0.0 0.0 0.00 9.99 0.00 87 1000.4
20260506221116 55 248 0.0 0.0 0.00 9.99 0.00 87 1000.3
20260506221036 55 248 0.0 0.0 0.00 9.99 0.00 87 1000.3
20260506220610 55 248 0.0 0.0 0.00 9.99 0.00 87 1000.1
20260506220534 55 248 0.0 0.0 0.00 9.99 0.00 87 1000.1
20260506215535 55 248 0.0 0.0 0.00 9.99 0.00 87 1000.1
20260506215127 55 248 0.0 0.0 0.00 9.99 0.00 86 1000.1
20260506215034 55 248 0.0 0.0 0.00 9.99 0.00 86 1000.1
20260506212036 56 359 0.0 0.0 0.00 9.99 0.00 86 1000.0
20260506211035 56 248 22.0 22.0 0.00 9.99 0.00 86 1000.1
20260506210535 56 248 24.0 24.0 0.00 9.99 0.00 86 1000.0
20260506210034 56 248 24.0 24.0 0.00 9.99 0.00 86 1000.2
20260506203534 57 248 0.0 0.0 0.00 9.99 0.00 85 999.9
20260506200534 57 248 0.0 0.0 0.00 9.99 0.00 86 999.7
20260506195533 57 248 0.0 0.0 0.00 9.99 0.00 86 999.5
20260506195033 57 248 0.0 0.0 0.00 9.99 0.00 85 999.5
20260506194038 57 248 0.0 0.0 0.00 9.99 0.00 85 999.5
20260506193533 57 248 0.0 0.0 0.00 9.99 0.00 85 999.5
20260506193033 58 248 0.0 0.0 0.00 9.99 0.00 85 999.4
20260506192533 58 248 0.0 0.0 0.00 9.99 0.00 84 999.4
20260506192034 58 248 0.0 0.0 0.00 9.99 0.00 84 999.5
20260506191533 58 248 0.0 0.0 0.00 9.99 0.00 84 999.5
20260506190534 58 248 0.0 0.0 0.00 9.99 0.00 84 999.2
20260506185533 59 248 0.0 0.0 0.00 9.99 0.00 84 999.0
20260506185033 59 248 0.0 0.0 0.00 9.99 0.00 83 999.1
20260506184534 59 248 0.0 0.0 0.00 9.99 0.00 83 999.0
20260506184034 59 248 0.0 0.0 0.00 9.99 0.00 83 999.0
20260506183539 59 248 0.0 0.0 0.02 9.99 0.00 83 999.0
20260506183033 59 248 0.0 0.0 0.02 9.99 0.00 83 999.0
20260506182034 59 248 0.0 0.0 0.02 9.99 0.00 83 998.7
20260506181533 59 248 0.0 0.0 0.02 9.99 0.00 83 998.5
20260506181035 59 248 0.0 0.0 0.02 9.99 0.00 83 998.4
20260506180533 59 248 0.0 0.0 0.02 9.99 0.00 83 998.4
20260506175033 59 248 0.0 0.0 0.02 9.99 0.00 83 998.4
20260506174533 59 359 0.0 0.0 0.02 9.99 0.00 83 998.5
20260506173533 60 248 0.0 0.0 0.00 9.99 0.00 82 998.5
20260506173033 60 248 22.0 22.0 0.00 9.99 0.00 82 998.4
20260506172533 60 248 22.0 22.0 0.00 9.99 0.00 82 998.5
20260506171534 60 248 0.0 0.0 0.00 9.99 0.00 82 998.3
20260506170535 60 248 0.0 0.0 0.00 9.99 0.00 82 998.4
20260506170033 60 248 0.0 0.0 0.00 9.99 0.00 82 998.4
20260506165533 60 248 0.0 0.0 0.00 9.99 0.00 82 998.6
20260506165413 60 248 0.0 0.0 0.00 9.99 0.00 82 998.6
20260506165034 60 248 0.0 0.0 0.00 9.99 0.00 82 998.6
20260506163534 61 248 0.0 0.0 0.12 9.99 0.00 81 998.7
20260506163035 61 248 0.0 0.0 0.18 9.99 0.00 81 998.6
20260506162534 61 248 2.0 2.0 0.18 9.99 0.00 81 998.6
20260506162034 61 248 0.0 0.0 0.18 9.99 0.00 82 998.6
20260506161535 61 248 0.0 0.0 0.18 9.99 0.00 82 998.9
20260506161035 61 248 0.0 0.0 0.18 9.99 0.00 82 999.0
20260506160536 61 248 3.0 3.0 0.18 9.99 0.00 82 999.0
20260506160035 61 248 3.0 3.0 0.18 9.99 0.00 82 998.9
20260506155534 61 248 0.0 0.0 0.18 9.99 0.00 82 998.9
20260506155034 62 359 0.0 0.0 0.18 9.99 0.00 82 998.8
20260506154534 62 359 0.0 0.0 0.18 9.99 0.00 83 999.0
20260506153534 61 248 23.0 23.0 0.06 9.99 0.00 84 999.0
20260506152534 60 359 0.0 0.0 0.00 9.99 0.00 84 999.3
20260506152034 61 248 0.0 0.0 0.00 9.99 0.00 84 999.4
20260506151536 61 248 0.0 0.0 0.00 9.99 0.00 84 999.2
20260506151034 60 248 0.0 0.0 0.00 9.99 0.00 85 999.5
20260506150534 60 248 0.0 0.0 0.00 9.99 0.00 85 999.2
20260506150034 60 248 0.0 0.0 0.00 9.99 0.00 85 999.4
20260506145534 59 248 0.0 0.0 0.00 9.99 0.00 85 999.5